Location: Blankensee
(53.5126°N, 14.3055°E)
Time: 17:39:13
(UTC+00:00)

Meteor 2-21 - Pass Details

Date: 08 August 2020
Orbit: 934 x 966 km, 82.6° (Epoch: 19 September)

Event Time Altitude Azimuth Distance (km) Brightness Sun altitude
Rises 01:59:12 0° 348° (NNW) 3,606 8.0 -11.4°
Reaches altitude 10° 02:01:42 10° 348° (NNW) 2,658 7.3 -11.2°
Maximum altitude 02:07:46 86° 261° (W) 947 4.4 -10.6°
Drops below altitude 10° 02:13:51 10° 173° (S) 2,652 6.4 -9.9°
Sets 02:16:19 0° 173° (S) 3,597 7.1 -9.7°
